Tracking 28790 objects as of 19-Apr-2024
HD Live streaming from Space Station
objects crossing your sky now

SL-16 DEB

Track SL-16 DEB now!
10-day predictions


NORAD ID: 22493
Int'l Code: 1992-093GC
Perigee: 665.6 km
Apogee: 810.4 km
Inclination: 71.0 °
Period: 99.4 minutes
Semi major axis: 7108 km
RCS: 0.0134 m2 (small)
Launch date: December 25, 1992
Source: Commonwealth of Independent States (former USSR) (CIS)
Launch site: TYURATAM MISSILE AND SPACE COMPLEX (TTMTR)

Note: This is SATELLITE DEBRIS
Your satellite tracking list
Your tracking list is empty




NASA's NSSDC Master Catalog

Two Line Element Set (TLE):
1 22493U 92093GC  24109.57593162  .00004253  00000-0  10762-2 0  9999
2 22493  71.0399 172.5924 0101799  15.0519 345.3610 14.48409900656434
Source of the keplerian elements: AFSPC